Regional Weather Roundup
Issued by NWS

Home | Current Version | Previous Version | Graphics & Text | Print | Product List | Glossary On
Versions: 1 2 3 4 5 6 7 8 9 10 11 12 13 14 15 16 17 18 19 20 21 22 23 24 25 26 27 28 29 30 31 32 33 34 35 36 37 38 39 40 41 42 43 44 45 46 47 48 49 50
000
ASUS45 KCYS 012010
RWRWY

WYOMING REGIONAL WEATHER ROUNDUP
NATIONAL WEATHER SERVICE CHEYENNE WY
200 PM MDT WED OCT 01 2014

NOTE:  "FAIR" INDICATES FEW OR NO CLOUDS BELOW 12,000 FEET
WITH NO SIGNIFICANT WEATHER AND/OR OBSTRUCTIONS TO VISIBILITY.

WYZ001-012100-
YELLOWSTONE NATIONAL PARK

CITY           SKY/WX    TMP DP  RH WIND       PRES   REMARKS
LK YELLOWSTONE   N/A     39  29  67 W6        30.06F WCI  35
W YELLOWSTONE  NOT AVBL

$$
WYZ002>013-054>058-071-098>099-012100-
NORTHERN WYOMING

CITY           SKY/WX    TMP DP  RH WIND       PRES   REMARKS
JACKSON        CLOUDY    45  30  57 CALM      30.05S
CODY           PTSUNNY   48  37  66 CALM      29.99F
GREYBULL       PTSUNNY   58  34  40 N13       29.95F
WORLAND        CLOUDY    52  35  52 NW14G23   29.97F
SHERIDAN       CLOUDY    54  37  52 NW12G20   29.95F
BUFFALO        CLOUDY    45  37  73 N9        29.97F
GILLETTE       CLOUDY    50  38  63 NW15      29.93F
HULETT         DRIZZLE   50  37  62 W6        29.94
NEWCASTLE      DRIZZLE   46  39  76 NW15      29.93

$$
WYZ014>020-022>026-101>103-012100-
CENTRAL WYOMING

CITY           SKY/WX    TMP DP  RH WIND       PRES   REMARKS
BIG PINEY      CLOUDY    43  29  57 N22G29    30.04R
PINEDALE       CLOUDY    43  32  65 W22G29    30.03S
DUBOIS         CLOUDY    41  23  48 N15G21    30.00S
LANDER         LGT RAIN  40  37  89 N10       30.01S WCI  33
RIVERTON       LGT RAIN  43  38  82 N13       30.00F
CASPER         LGT RAIN  42  39  89 N14       29.98F
DOUGLAS        LGT RAIN  45  42  89 N10       29.97F FOG

$$
WYZ021-027>030-104>119-012100-
SOUTHERN WYOMING

CITY           SKY/WX    TMP DP  RH WIND       PRES   REMARKS
EVANSTON       CLOUDY    45  27  49 NW9       30.09S
KEMMERER       MOCLDY    43  28  56 W20G32    30.07S
FORT BRIDGER   FAIR      47  32  55 NW17      30.09F
ROCK SPRINGS   PTSUNNY   47  26  44 W14       30.00F
DIXON          LGT RAIN  43  38  82 SW7       30.03S
RAWLINS        PTSUNNY   49  29  46 W16       29.98F
SARATOGA       MOCLDY    45  32  61 NW9       30.00F
LARAMIE        LGT SNOW  34  32  92 W6        29.99S FOG     WCI  29
CHEYENNE       RAIN      43  38  82 N14       29.95R
TORRINGTON     MOSUNNY   58  43  57 N17G25    29.86S
PINE BLUFFS    CLOUDY    55  36  47 NW17G24   29.88F

$$



USA.gov is the U.S. government's official web portal to all federal, state and local government web resources and services.